Regional Weather Roundup
Issued by NWS

Home | Current Version | Previous Version | Text Only | Print | Product List | Glossary On
Versions: 1 2 3 4 5 6 7 8 9 10 11 12 13 14 15 16 17 18 19 20 21 22 23 24 25 26 27 28 29 30 31 32 33 34 35 36 37 38 39 40 41 42 43 44 45 46 47 48 49 50
915
ASUS44 KLIX 292010
RWRLA
LOUISIANA WEATHER ROUNDUP
NATIONAL WEATHER SERVICE NEW ORLEANS LA
300 PM CDT TUE JUL 29 2014

NOTE: "FAIR" INDICATES FEW OR NO CLOUDS BELOW 12,000 FEET WITH NO
      SIGNIFICANT WEATHER AND/OR OBSTRUCTIONS TO VISIBILITY.
      SKY/WX - SKY CONDITION AND SIGNIFICANT WEATHER.
      TMP - AIR TEMPERATURE.    DP   - DEWPOINT TEMPERATURE.
      RH  - RELATIVE HUMIDITY.  PRES - PRESSURE.
      HX  - HEAT INDEX.         WCI  - WIND CHILL INDEX.

*  THESE STATIONS ARE NOT NWS OR FAA STATIONS AND ARE NOT UNDER
   NWS QUALITY CONTROL.

LAZ040-048-061>063-065-066-069-292100-
SOUTHEAST LOUISIANA

CITY           SKY/WX    TMP DP  RH WIND       PRES   REMARKS
N.O. AUDUBON     N/A     90  68  47 MISG        N/A
N.O. INTL ARPT PTSUNNY   88  67  49 N10       30.04F
N.O. LAKEFRONT PTSUNNY   86  67  52 NW7       30.04F
N.O. DOWNTOWN* FAIR      86  63  45 N7        30.04S
SLIDELL        MOSUNNY   87  64  46 N9        30.02F
BATON ROUGE    MOSUNNY   87  65  47 NE6       30.05F
BOOTHVILLE     PTSUNNY   85  69  58 VRB6      30.04F
BELLE CHASSE   PTSUNNY   88  65  46 VRB3      30.02F
BOGALUSA*        N/A     88  61  40 NE7       30.05F
GALLIANO*      NOT AVBL
NEW ROADS*     FAIR      86  64  48 N7        30.05F
GONZALES*      FAIR      87  67  50 NW3       30.03F
HAMMOND*       MOSUNNY   91  59  33 CALM      30.05F
HOUMA*         MOSUNNY   90  66  45 N5        30.04S
PORT FOURCHON* PTCLDY    88  68  51 N7        30.04F

$$

LAZ041-044-053-054-292100-
SOUTHWEST LOUISIANA

CITY           SKY/WX    TMP DP  RH WIND       PRES   REMARKS
LAKE CHARLES   PTSUNNY   88  68  51 NE6       30.05F
LAFAYETTE      MOSUNNY   88  66  48 NE8       30.05F
PATTERSON      PTSUNNY   88  72  58 NW6       30.09S
SALT POINT       N/A     88  71  57 VRB3      30.04F
NEW IBERIA     MOSUNNY   90  66  45 N6        30.05F
CHENAULT AIRPK NOT AVBL

$$

LAZ027-028-292100-
CENTRAL LOUISIANA

CITY           SKY/WX    TMP DP  RH WIND       PRES   REMARKS
FORT POLK      MOSUNNY   87  60  40 VRB6      30.07F
ALEXANDRIA INT PTSUNNY   90  63  40 N10       30.05S
ALEXANDRIA     MOSUNNY   91  64  40 VRB5      30.07S

$$

LAZ001-002-292100-
NORTHWEST LOUISIANA

CITY           SKY/WX    TMP DP  RH WIND       PRES   REMARKS
SHREVEPORT     MOSUNNY   91  63  39 NW8       30.07F
BARKSDALE AFB  MOSUNNY   89  65  45 N7        30.08F
DTN SHREVEPORT SUNNY     90  62  39 VRB7      30.08F

$$

LAZ014-016-292100-
NORTHEAST LOUISIANA

CITY           SKY/WX    TMP DP  RH WIND       PRES   REMARKS
MONROE         PTSUNNY   90  66  45 N10       30.07F
TALLULAH       SUNNY     89  63  41 N8        30.06F

$$




USA.gov is the U.S. government's official web portal to all federal, state and local government web resources and services.